Location: Poughquag
(41.6090°N, 73.6820°W)
Time: 16:36:33
(UTC-05:00)

Envisat - Pass Details

Date: 22 January 2020
Orbit: 764 x 766 km, 98.1° (Epoch: 24 February)

Event Time Altitude Azimuth Distance (km) Brightness Sun altitude
Rises 17:38:31 0° 163° (SSE) 3,218 6.3 -7.9°
Reaches altitude 10° 17:40:48 10° 163° (SSE) 2,296 5.5 -8.3°
Maximum altitude 17:45:52 84° 76° (ENE) 776 3.0 -9.2°
Drops below altitude 10° 17:50:59 10° 349° (NNW) 2,312 5.4 -10.1°
Sets 17:53:17 0° 348° (NNW) 3,242 6.2 -10.5°
